Location: Dealu Mare
(46.0500°N, 22.8167°E)
Time: 22:20:28
(UTC+00:00)

Lacrosse 5 rocket - Pass Details

Date: 15 January 2026
Orbit: 401 x 482 km, 57.0° (Epoch: 13 February)

Event Time Altitude Azimuth Distance (km) Brightness Sun altitude
Exits shadow 04:07:44 16° 0° (N) 1,352 3.2 -20.2°
Drops below altitude 10° 04:09:50 10° 34° (NE) 1,685 4.1 -19.8°
Sets 04:12:41 0° 56° (ENE) 2,567 5.4 -19.3°
